Погода в Мангалуре

Индия     12°52′02″N   74°50′47″E
темп.,
°C
ветер,
м/с
пор.,
м/с
влажн.,
%
обл.,
%
осадки,
мм/ч
давл.,
гПа
погр.,
м
1 декабря, ср
ср123:30+27всв217365 5.0 1011190
02:30+26в338198 0.3 1009167
05:30+26в448096 1.8 1009252
08:30+26в577796 0.0 1011335
11:30+28юв44698 0.0 1010551
14:30+28ююз4573100 0.0 1008425
17:30+28ююз567383 0.0 1008481
20:30+28ююв567367 0.0 1011682
2 декабря, чт
чт223:30+27ююв578182 4.9 1011364
02:30+26юв578199 3.5 1009390
05:30+26юв4583100 8.8 1010277
08:30+26вюв458298 3.9 1012288
11:30+27ююв347873 7.1 1011353
14:30+28ю5675100 0.8 1008628
17:30+28ю457593 1.0 1009698
20:30+28ю447690 1.5 1012682
3 декабря, пт
пт323:30+27юв447895 1.6 1011510
02:30+26юв3382100 0.3 1009369
05:30+25вюв338688 1.6 1010246
08:30+26в228388 0.7 1012239
11:30+27ю127792 1.5 1012322
14:30+28юз337482 0.6 1009474
17:30+28зюз2273100 0.6 1010594
20:30+28сз0072100 0.0 1012546
4 декабря, сб
сб423:30+27всв2279100 0.3 1012153
02:30+26всв2282100 1.3 101077
05:30+25в2284100 2.6 1010149
08:30+26в338382 0.5 1012216
11:30+27юз1173100 1.3 1012240
14:30+28юз337128 0.1 1009581
17:30+28зюз2371100 0.1 1010756
20:30+28зсз2272100 0.8 1012544
5 декабря, вс
вс523:30+27ссв2276100 2.3 1012201
02:30+26всв3283100 0.3 1011156
05:30+25в338595 0.8 1011219
08:30+26в228392 0.4 1013199
11:30+27з117827 1.1 1013266
14:30+27зсз337373 0.3 1010587
17:30+27ссз337497 0.3 1010613
20:30+27с337591 0.0 1012639